TimeCDT,TemperatureF,Dew PointF,Humidity,Sea Level PressureIn,VisibilityMPH,Wind Direction,Wind SpeedMPH,Gust SpeedMPH,PrecipitationIn,Events,Conditions,WindDirDegrees,DateUTC
12:53 AM,75.0,68.0,79,29.97,10.0,South,10.4,-,N/A,,Clear,190,2013-08-21 05:53:00
1:53 AM,73.0,68.0,84,29.98,10.0,South,8.1,-,N/A,,Clear,170,2013-08-21 06:53:00
2:53 AM,72.0,66.9,84,29.97,10.0,South,6.9,-,N/A,,Clear,180,2013-08-21 07:53:00
3:53 AM,71.1,66.9,87,29.96,10.0,South,8.1,-,N/A,,Clear,190,2013-08-21 08:53:00
4:53 AM,71.1,66.0,84,29.96,10.0,SSW,12.7,-,N/A,,Clear,200,2013-08-21 09:53:00
5:53 AM,70.0,64.9,84,29.97,10.0,SSW,11.5,-,N/A,,Clear,200,2013-08-21 10:53:00
6:53 AM,70.0,64.9,84,29.99,10.0,South,5.8,-,N/A,,Clear,190,2013-08-21 11:53:00
7:53 AM,71.1,64.9,81,30.01,10.0,South,3.5,-,N/A,,Clear,180,2013-08-21 12:53:00
8:53 AM,73.9,66.9,79,30.02,10.0,South,3.5,-,N/A,,Clear,190,2013-08-21 13:53:00
9:53 AM,77.0,68.0,74,30.02,10.0,South,8.1,-,N/A,,Clear,190,2013-08-21 14:53:00
10:53 AM,80.1,70.0,71,30.02,10.0,South,9.2,-,N/A,,Clear,190,2013-08-21 15:53:00
11:53 AM,82.9,70.0,65,30.01,10.0,South,6.9,-,N/A,,Clear,180,2013-08-21 16:53:00
12:53 PM,84.9,71.1,63,30.00,10.0,South,10.4,-,N/A,,Clear,180,2013-08-21 17:53:00
1:53 PM,87.1,72.0,61,29.99,10.0,South,10.4,-,N/A,,Clear,180,2013-08-21 18:53:00
2:53 PM,88.0,72.0,59,29.98,10.0,South,11.5,-,N/A,,Clear,180,2013-08-21 19:53:00
3:53 PM,89.1,72.0,57,29.96,10.0,South,9.2,-,N/A,,Clear,190,2013-08-21 20:53:00
4:53 PM,89.1,72.0,57,29.96,10.0,South,6.9,-,N/A,,Clear,180,2013-08-21 21:53:00
5:53 PM,88.0,73.0,61,29.95,10.0,South,9.2,-,N/A,,Clear,180,2013-08-21 22:53:00
6:53 PM,86.0,75.0,70,29.94,10.0,SSE,5.8,-,N/A,,Clear,160,2013-08-21 23:53:00
7:53 PM,80.1,75.0,85,29.95,5.0,SE,4.6,-,N/A,,Haze,140,2013-08-22 00:53:00
8:53 PM,79.0,73.0,82,29.95,10.0,South,6.9,-,N/A,,Clear,170,2013-08-22 01:53:00
9:53 PM,73.0,71.1,93,29.96,10.0,SSE,5.8,-,N/A,,Clear,150,2013-08-22 02:53:00
10:53 PM,71.1,70.0,96,29.96,6.0,SSE,6.9,-,N/A,,Clear,150,2013-08-22 03:53:00
11:53 PM,73.0,70.0,90,29.97,10.0,SSE,5.8,-,N/A,,Clear,160,2013-08-22 04:53:00